Location: Carri�res
(48.9069°N, 2.1792°E)
Time: 19:00:39
(UTC+00:00)

SeaSat 1 - Pass Details

Date: 17 May 2021
Orbit: 744 x 747 km, 108.0° (Epoch: 12 June)

Event Time Altitude Azimuth Distance (km) Brightness Sun altitude
Rises 02:01:17 0° 22° (NNE) 3,203 7.4 -15.5°
Reaches altitude 10° 02:03:50 10° 11° (N) 2,275 6.1 -15.3°
Maximum altitude 02:07:55 27° 315° (NW) 1,429 4.0 -14.9°
Enters shadow 02:11:45 11° 261° (W) 2,186 4.5 -14.6°
